Vorticity
6 5 3 2 4 5 7 7 6 10 7 8 4 11 15 12 11 15 5 12 13 4
3 2 4 6 1 3 6 7 8 9 6 6 10 10 7 3 13 1 -1 -1 9 -1
4 5 5 4 4 6 9 12 13 10 9 10 10 9 8 5 1 8 -1 1 -19 25
8 7 6 8 9 10 9 6 5 3 4 6 6 7 4 5 11 12 10 -3 -0 8
22 22 23 19 13 12 12 11 10 10 10 9 6 5 6 3 11 5 -4 5 -1 6
5 5 6 7 8 13 16 14 11 8 8 7 8 8 8 8 9 9 0 -1 8 8
9 9 5 7 7 8 5 6 8 10 11 12 11 10 10 10 8 7 9 6 9 10
2 7 10 8 9 9 10 12 7 4 6 9 8 9 9 9 10 10 9 11 10 12
19 15 12 12 11 11 9 10 13 14 12 10 10 10 10 10 11 10 11 11 11 9
12 15 17 15 12 11 12 12 12 12 12 12 12 13 14 12 11 10 10 8 8 6
14 15 15 15 14 14 14 14 14 15 14 13 12 11 9 9 9 9 7 7 6 6
8 10 14 17 15 12 11 11 12 12 11 10 9 8 8 8 7 6 6 6 5 5
7 7 10 14 15 11 11 12 11 10 9 8 7 8 7 6 7 7 6 5 4 5
9 10 7 9 14 13 10 11 11 10 9 11 9 9 8 7 7 6 5 5 4 5
Height
3097 3101 3101 3100 3101 3102 3104 3106 3106 3107 3106 3107 3109 3108 3108 3110 3110 3111 3112 3111 3111 3112
3093 3095 3095 3095 3096 3097 3098 3099 3099 3100 3100 3101 3102 3102 3102 3104 3105 3105 3106 3106 3107 3107
3089 3090 3088 3088 3090 3091 3092 3092 3093 3094 3094 3095 3095 3097 3097 3097 3098 3098 3099 3099 3100 3100
3082 3083 3082 3083 3083 3084 3085 3086 3086 3087 3088 3088 3089 3089 3089 3089 3090 3090 3091 3091 3092 3092
3076 3075 3076 3076 3075 3077 3077 3078 3079 3079 3079 3080 3081 3081 3082 3082 3083 3084 3084 3084 3084 3084
3068 3067 3067 3068 3069 3069 3070 3071 3071 3071 3071 3072 3073 3073 3074 3074 3076 3076 3076 3075 3076 3076
3060 3061 3061 3061 3062 3062 3063 3063 3063 3063 3064 3065 3065 3065 3066 3066 3067 3067 3068 3068 3067 3067
3053 3052 3053 3053 3052 3052 3053 3054 3055 3056 3056 3057 3056 3057 3057 3058 3060 3060 3060 3059 3059 3060
3046 3045 3044 3044 3044 3045 3045 3045 3046 3045 3045 3046 3047 3047 3048 3049 3050 3051 3051 3053 3051 3052
3037 3038 3037 3036 3035 3034 3035 3035 3036 3036 3036 3037 3038 3039 3039 3042 3042 3043 3045 3045 3044 3044
3029 3028 3027 3027 3026 3025 3026 3027 3027 3027 3027 3027 3028 3031 3032 3034 3034 3035 3036 3036 3036 3036
3021 3021 3018 3018 3017 3016 3015 3015 3016 3017 3018 3019 3021 3022 3024 3026 3027 3027 3026 3027 3027 3027
3013 3011 3009 3008 3006 3006 3006 3006 3006 3007 3010 3011 3012 3013 3014 3016 3017 3018 3019 3020 3019 3019
3002 3001 3000 2999 2998 2997 2997 2998 2998 2999 3000 3001 3002 3003 3005 3007 3009 3010 3011 3011 3010 3009